User: anonymous   Login
Location: Unspecified
(0.0000°N, 0.0000°E)
Time: 19:20:02
(UTC+00:00)
Language:

FALCON 9 R/B - Orbit

View from above orbital plane
View from above orbital plane
View from above satellite
View from above satellite

Ground track
Ground track

The orbit data is extracted from the following two-line orbital elements,

1 37253U 10066K   17178.80310575 +.00002166 +00000-0 +22179-3 0  9995
2 37253 034.5301 335.2830 4275403 225.0697 091.1501 06.89542571161202
Epoch (UTC): 27 June 2017 19:16:28
Eccentricity: 0.4275403
inclination: 34.5301°
perigee height: 296 km
apogee height: 10267 km
right ascension of ascending node: 335.2830°
argument of perigee: 225.0697°
revolutions per day: 6.89542571
mean anomaly at epoch: 91.1501°
orbit number at epoch: 16120

The dashed part of the orbit path shows where the satellite is in the earth's shadow,  

DLR